Temperature
13 13 14 14 14 14 14 14 15 16 16 16 16 16 15 15 15 15 14 14 14 14 14 14 14 14 14 14 14 14 14 14 13 14 14 14 14 14 14 15 15 15 15
13 13 13 13 14 14 14 14 15 16 16 15 15 15 15 15 15 14 14 14 14 14 14 14 14 13 13 13 13 13 13 13 13 13 13 13 14 14 14 14 15 15 15
13 13 13 13 13 13 14 14 15 15 15 15 15 15 15 14 14 14 14 14 14 14 14 14 13 13 13 12 13 13 13 13 13 13 13 13 14 14 14 15 14 15 15
13 13 13 13 13 14 14 14 15 15 15 15 15 15 14 14 14 14 14 14 14 14 14 14 13 13 13 13 13 13 13 13 13 13 13 13 13 14 14 14 14 14 14
13 13 14 14 14 14 14 15 15 15 15 15 14 14 14 14 14 14 14 14 14 14 14 14 14 14 14 13 13 13 13 13 13 13 13 13 13 13 13 13 13 13 13
12 12 13 13 13 13 13 14 14 14 14 14 14 14 14 14 14 14 14 14 14 14 14 14 14 14 14 14 14 13 13 13 13 13 13 13 13 13 13 13 13 13 13
12 12 12 12 12 13 13 13 14 14 14 14 14 13 13 14 14 14 14 14 14 14 14 14 13 13 14 13 13 14 13 13 13 13 13 13 13 13 13 13 13 13 13
12 12 12 12 12 12 13 13 13 13 13 13 13 12 12 13 13 13 14 14 13 13 13 13 13 13 13 13 13 13 13 13 13 13 13 13 12 12 12 12 12 12 12
11 11 11 11 12 12 12 12 12 12 11 11 12 12 12 12 12 13 13 12 13 13 13 13 13 13 13 13 13 13 13 13 13 13 13 13 12 12 12 12 12 12 12
11 11 11 11 11 11 11 11 11 11 11 11 11 11 12 12 12 12 12 12 12 12 12 12 13 13 13 13 13 13 13 13 13 13 13 13 13 13 12 12 12 12 12
11 11 11 11 11 11 11 11 11 11 11 11 11 11 12 12 12 12 12 12 12 11 11 11 11 12 12 12 13 13 13 13 13 13 13 13 13 13 13 12 12 12 12
12 11 11 11 11 11 11 11 11 11 11 11 11 11 11 11 11 11 11 11 11 11 11 11 11 11 11 12 12 12 13 13 13 13 13 13 13 13 12 12 12 12 12
12 11 11 11 11 11 11 11 11 11 10 10 10 10 10 10 10 10 10 10 10 10 10 10 11 11 11 11 12 12 12 12 12 13 12 12 12 12 12 12 12 12 12
12 12 11 11 11 11 11 11 11 10 10 10 10 10 10 10 10 10 10 10 9 9 9 10 10 11 11 11 11 12 12 12 12 12 12 12 12 12 11 11 11 11 11
12 12 12 11 11 11 11 11 10 10 10 10 10 10 10 10 10 10 10 9 9 9 9 9 10 10 10 11 11 11 11 11 11 11 11 11 11 11 11 11 11 11 11
13 12 12 11 11 11 10 10 10 10 10 10 10 9 9 9 9 9 9 9 9 9 9 9 9 10 10 10 10 10 11 11 11 11 11 11 11 11 11 10 10 10 10
13 12 12 11 11 10 10 10 10 9 9 9 9 9 9 9 9 9 9 9 9 9 9 9 9 10 10 10 10 10 10 10 11 11 10 10 10 10 10 10 10 10 9
13 12 12 11 11 10 10 10 9 9 9 9 9 9 9 9 9 9 9 9 9 9 9 9 9 9 9 10 10 10 10 10 10 10 10 9 9 9 9 9 9 9 9
13 12 12 11 11 10 10 10 10 10 9 9 9 9 9 8 8 8 9 9 8 8 8 8 8 9 9 9 9 9 9 9 9 9 9 9 9 9 9 9 9 9 8
14 13 12 11 11 11 10 10 10 10 9 9 9 8 8 8 8 8 8 8 8 8 8 8 8 8 8 8 8 8 9 9 9 9 8 8 8 8 8 8 8 7 7
14 13 12 11 11 11 10 10 10 10 9 9 8 8 8 8 8 8 7 7 7 7 7 7 7 8 8 8 8 8 8 8 8 8 8 8 8 7 7 7 7 6 6
13 12 12 11 11 11 10 10 10 10 9 9 8 8 8 8 7 7 7 7 6 7 7 7 7 8 7 7 7 7 7 7 7 7 7 7 7 7 6 6 6 5 5
13 12 12 11 11 11 11 10 10 10 9 9 9 8 8 8 7 7 7 6 7 7 7 7 7 7 7 7 7 7 7 7 7 6 6 6 6 6 5 5 5 4 4
13 12 12 11 11 11 11 11 10 10 10 9 9 9 8 8 8 7 7 7 7 8 8 8 8 8 8 7 7 7 8 7 7 6 6 6 5 5 5 5 4 4 4
13 13 12 12 11 11 11 11 10 10 10 10 9 9 8 8 8 7 7 7 8 8 8 8 8 8 8 8 8 8 8 8 8 7 6 5 5 5 5 5 5 5 4
13 13 12 12 11 11 11 11 11 10 10 10 9 9 8 8 8 7 7 8 8 8 8 8 8 8 8 8 8 8 8 8 8 7 5 5 5 5 5 5 5 4 4
Wind_Speed
7 8 8 7 5 1 3 5 5 4 5 7 8 9 10 10 10 9 9 8 8 7 8 8 8 7 6 6 7 8 8 8 9 7 4 5 5 6 5 9 12 12 13
6 6 6 4 2 2 4 3 2 1 3 6 7 8 9 9 10 10 9 8 8 8 8 7 7 6 8 8 7 9 9 9 9 9 7 7 10 9 7 8 9 10 11
6 4 4 2 2 3 2 1 2 3 2 3 5 7 8 8 9 10 9 9 8 7 6 6 5 5 7 7 8 9 8 8 8 8 8 7 7 7 7 8 9 8 10
5 3 3 3 2 1 2 2 3 4 4 2 1 4 6 7 8 8 9 10 9 8 6 4 4 4 4 6 7 8 7 6 7 8 8 7 6 4 5 7 8 8 8
6 4 3 2 2 3 3 4 4 4 4 3 2 1 0 2 4 5 8 10 10 8 7 5 4 2 3 3 4 4 3 3 2 3 5 5 6 5 5 5 7 6 7
10 10 8 7 7 6 6 5 6 7 6 5 4 4 4 4 5 5 7 9 9 7 7 7 5 6 7 6 4 5 6 4 3 3 3 3 4 4 4 4 4 4 4
13 13 12 11 11 10 9 9 9 9 9 8 7 7 7 8 8 5 7 8 8 7 7 8 6 6 5 6 6 8 7 5 4 4 4 3 2 2 4 4 4 5 5
13 13 12 11 11 10 11 11 11 10 10 9 9 9 10 12 13 10 4 5 5 6 7 9 9 9 8 5 5 5 4 3 3 5 4 2 2 3 2 2 2 3 4
11 10 10 10 10 11 11 11 10 9 9 9 9 10 10 11 16 15 11 1 1 3 5 7 9 9 3 2 7 6 5 4 3 6 7 6 6 5 5 4 3 3 3
9 9 9 9 9 9 9 9 8 7 7 7 9 9 10 10 14 15 13 5 4 3 3 4 5 6 2 3 8 8 7 5 3 3 4 5 5 4 4 5 4 4 3
8 9 9 9 9 8 8 8 8 7 7 6 7 7 8 9 10 11 10 6 6 6 5 4 2 1 5 6 9 8 5 6 4 2 1 1 1 1 2 1 1 0 0
5 6 7 6 6 6 7 7 8 7 6 5 5 5 5 5 6 7 6 6 6 6 6 6 4 4 6 7 7 5 4 4 2 1 1 1 2 2 2 1 1 1 1
5 5 4 4 5 5 6 6 6 6 5 5 5 4 4 4 4 5 6 7 7 7 5 5 7 7 7 7 7 5 4 4 3 3 3 2 2 2 1 1 1 1 2
4 4 4 4 4 4 4 4 5 5 6 6 6 6 6 6 8 9 9 8 8 6 4 4 7 7 5 3 2 5 5 4 5 4 4 3 3 2 1 1 1 1 1
3 3 3 3 3 4 4 4 4 5 6 6 6 6 7 8 10 11 8 9 9 7 5 1 0 1 2 2 3 4 5 5 5 5 5 4 3 2 1 2 2 3 3
2 2 2 3 3 4 3 3 2 1 3 5 7 7 6 7 9 9 10 13 14 12 6 4 4 3 2 3 4 4 4 4 4 4 4 2 2 1 2 1 2 3 3
2 0 1 2 4 4 3 2 3 4 4 0 5 8 8 10 11 11 11 12 15 14 10 9 8 7 5 5 5 5 5 5 5 5 5 4 3 3 3 3 4 4 5
2 2 1 2 3 4 4 4 4 4 4 3 6 9 8 9 11 13 12 10 12 12 10 10 9 8 8 8 7 7 6 6 5 5 4 4 4 4 4 4 5 6 6
3 3 3 2 2 3 3 4 5 5 5 4 4 5 5 4 6 12 11 10 9 9 9 9 9 8 8 8 7 6 6 5 5 5 5 5 5 5 5 5 5 5 5
3 3 3 3 2 2 2 3 4 5 4 4 5 6 5 6 7 8 8 8 8 8 8 8 8 8 8 7 7 7 7 7 7 6 5 5 5 5 5 4 4 5 4
4 5 5 3 2 2 2 3 4 4 4 4 5 5 7 6 6 6 6 6 7 7 7 7 6 6 7 6 6 6 6 5 5 4 4 4 4 4 4 4 4 5 5
4 4 4 3 2 2 2 2 2 3 3 3 3 3 1 4 5 5 5 6 6 6 6 6 6 6 6 6 6 5 5 4 4 4 4 4 4 4 4 4 5 5 6
3 4 4 3 3 3 2 1 1 2 2 2 1 1 2 4 4 4 4 5 5 5 6 6 6 6 6 7 7 6 6 5 4 4 3 3 3 4 4 5 5 6 6
4 4 4 4 4 4 3 2 2 2 2 1 1 1 2 3 3 4 4 4 4 5 5 6 6 7 8 7 8 9 9 8 5 4 4 3 4 4 5 5 6 7 6
4 5 5 5 5 4 4 3 3 3 3 2 2 1 1 2 3 3 3 4 4 4 5 6 5 6 8 10 10 10 10 11 10 7 4 4 5 6 6 7 6 6 6
5 5 5 5 5 5 5 4 4 3 3 2 2 2 1 1 2 2 3 3 3 4 4 5 5 5 6 8 10 10 10 10 10 9 6 6 7 7 7 7 7 7 7
Wind_Direction
82 83 85 86 85 58 281 266 254 220 198 200 208 205 194 192 195 196 209 206 220 224 226 236 243 249 248 250 253 250 241 234 243 248 246 238 228 235 217 233 238 227 220
77 80 85 86 91 257 256 247 228 206 211 213 212 215 205 200 199 197 202 204 213 220 227 238 248 246 253 254 249 248 242 232 234 241 233 235 248 258 261 255 241 237 241
61 79 92 118 185 233 221 155 125 121 139 191 213 224 221 216 212 209 204 209 215 219 227 250 269 262 255 254 251 250 244 236 229 238 242 235 238 244 250 256 249 243 243
44 71 114 148 179 154 94 99 94 93 93 92 194 232 233 233 230 226 219 219 219 215 216 234 254 251 257 265 265 262 255 246 238 240 245 240 229 212 222 241 242 235 237
54 71 85 110 117 106 94 74 59 58 62 57 58 99 239 258 255 253 242 233 225 217 216 223 228 269 337 305 302 300 285 258 239 245 248 237 221 194 208 227 246 258 255
65 73 81 90 91 87 76 64 53 44 38 36 43 69 61 36 357 301 268 248 238 233 234 235 218 212 212 218 259 303 317 304 277 233 224 227 214 208 213 219 241 256 266
58 59 61 62 62 60 62 58 51 47 44 43 47 63 67 41 15 341 259 253 234 230 244 249 239 232 227 234 210 223 239 230 262 294 277 268 242 209 213 217 228 243 257
51 51 52 55 57 56 55 52 48 48 51 54 56 65 65 47 35 24 322 246 243 238 239 246 245 238 228 246 249 250 267 256 243 259 281 314 347 356 326 310 305 285 271
48 48 49 53 53 50 48 46 44 47 53 58 57 56 57 45 31 18 352 25 270 258 255 252 253 251 160 227 260 259 262 265 220 253 298 307 319 302 295 292 280 268 260
47 48 48 48 51 51 49 46 47 50 51 58 59 50 45 38 29 21 4 2 354 335 284 252 239 265 342 246 253 258 267 283 278 238 240 246 270 270 247 252 274 279 269
41 40 40 41 43 39 36 33 29 32 36 42 56 50 39 26 32 30 18 10 351 325 302 277 244 86 312 294 276 276 303 312 298 296 359 36 76 101 108 120 128 166 126
50 46 43 39 32 28 28 30 29 27 36 42 54 57 44 30 19 17 7 358 333 320 306 304 316 333 305 295 275 292 330 284 251 169 133 114 122 130 139 142 137 146 115
44 47 40 40 39 30 28 36 39 39 43 49 52 47 36 17 1 327 312 308 299 301 296 279 279 281 279 264 239 246 232 212 182 176 165 137 119 125 135 127 113 103 105
28 31 30 25 37 51 48 47 51 50 47 44 36 23 7 1 3 351 341 335 323 310 300 256 243 243 243 259 223 189 189 182 182 169 149 141 146 149 136 82 53 26 103
1 10 12 19 21 44 67 59 64 65 37 19 16 5 3 359 358 350 352 357 351 344 329 331 77 152 162 153 150 151 156 164 165 149 146 151 157 155 112 41 3 343 334
312 345 5 24 29 29 61 121 115 70 22 6 0 352 24 20 1 14 15 14 12 5 19 51 54 63 88 124 133 132 133 134 134 131 125 118 108 89 71 48 360 343 346
273 195 54 32 36 35 34 51 107 154 188 248 34 33 31 20 22 22 18 29 29 25 41 42 41 41 48 69 85 89 83 78 79 80 79 72 60 48 39 23 6 355 351
214 143 128 75 49 46 45 48 56 70 95 95 81 57 29 22 29 25 20 39 42 39 41 40 39 39 43 53 62 69 72 71 73 84 86 78 62 51 41 29 20 8 357
189 163 144 103 83 69 60 60 73 78 75 59 58 67 40 21 50 38 34 48 49 43 40 39 37 38 42 49 56 62 68 69 65 66 61 51 43 48 47 32 21 13 355
166 114 136 144 134 105 83 70 79 86 86 72 52 37 37 43 48 44 43 45 49 47 42 39 36 36 39 43 47 52 56 54 49 44 38 36 36 40 40 31 16 5 359
158 152 171 185 156 111 86 72 84 101 98 84 69 46 1 46 56 55 52 48 45 40 36 37 34 29 29 31 37 45 51 49 45 41 31 21 23 31 31 28 18 11 359
161 161 177 175 165 160 109 96 99 118 122 104 96 99 341 53 66 67 60 48 41 36 30 36 44 36 29 26 20 21 25 29 27 24 27 21 18 25 29 24 16 3 353
178 169 172 173 178 163 202 165 165 174 163 136 93 65 70 67 72 72 65 53 40 34 33 43 51 46 43 41 40 36 29 20 9 5 8 25 36 33 25 18 11 6 13
198 189 182 180 187 196 209 209 211 207 202 207 233 317 52 67 71 75 72 56 45 48 53 57 58 57 52 44 44 45 38 24 23 36 51 61 48 35 33 32 34 35 30
218 205 198 196 199 213 225 219 217 216 209 218 221 211 132 80 73 73 68 58 53 62 65 66 64 58 59 58 56 51 41 37 30 19 51 55 55 54 56 54 53 46 35
223 213 211 209 210 222 232 232 225 216 206 197 194 189 186 131 96 91 76 63 72 79 77 74 68 67 66 64 55 46 45 46 35 11 39 70 65 58 63 66 63 53 52
Height
1495 1496 1497 1499 1502 1506 1509 1512 1514 1515 1515 1516 1517 1518 1518 1518 1518 1519 1519 1519 1520 1520 1520 1520 1519 1518 1517 1518 1519 1520 1520 1520 1521 1523 1525 1528 1529 1531 1533 1533 1535 1535 1536
1499 1499 1501 1503 1505 1508 1510 1512 1513 1513 1514 1515 1515 1516 1516 1516 1517 1517 1517 1517 1518 1518 1519 1519 1517 1515 1514 1514 1514 1515 1515 1516 1517 1518 1519 1522 1525 1528 1529 1530 1531 1532 1533
1503 1503 1505 1506 1508 1510 1511 1512 1512 1512 1512 1512 1513 1514 1514 1514 1515 1515 1516 1516 1517 1517 1518 1517 1515 1512 1510 1511 1511 1511 1511 1511 1512 1514 1515 1517 1520 1522 1524 1525 1526 1527 1528
1506 1506 1507 1509 1511 1512 1512 1512 1512 1511 1511 1511 1511 1511 1511 1512 1513 1514 1514 1515 1516 1516 1516 1515 1513 1511 1510 1509 1509 1509 1508 1508 1509 1510 1511 1513 1515 1516 1518 1520 1522 1522 1523
1508 1508 1509 1510 1511 1511 1512 1512 1511 1511 1510 1509 1508 1508 1508 1509 1510 1512 1513 1514 1515 1515 1515 1514 1513 1512 1510 1509 1509 1508 1507 1506 1506 1506 1507 1508 1510 1512 1514 1516 1517 1518 1518
1512 1511 1510 1511 1511 1511 1511 1511 1510 1509 1508 1507 1507 1506 1506 1507 1508 1510 1511 1512 1513 1513 1513 1514 1513 1511 1511 1509 1508 1508 1506 1506 1505 1505 1505 1505 1506 1508 1509 1511 1512 1512 1513
1515 1513 1512 1512 1511 1511 1510 1509 1508 1507 1506 1506 1505 1505 1506 1506 1507 1508 1509 1510 1510 1510 1510 1511 1512 1511 1510 1510 1509 1508 1507 1505 1504 1504 1505 1505 1505 1505 1506 1506 1507 1508 1508
1518 1516 1515 1514 1513 1512 1511 1509 1509 1508 1507 1506 1506 1506 1506 1505 1505 1505 1506 1506 1506 1506 1507 1507 1508 1509 1508 1509 1509 1508 1507 1506 1504 1503 1504 1504 1504 1504 1504 1505 1505 1505 1505
1522 1520 1519 1518 1516 1515 1514 1513 1512 1511 1510 1509 1508 1507 1506 1505 1505 1504 1504 1504 1503 1502 1503 1503 1504 1505 1505 1505 1506 1506 1505 1505 1503 1503 1502 1502 1503 1503 1503 1503 1503 1503 1502
1525 1523 1522 1520 1519 1518 1517 1516 1514 1513 1511 1510 1509 1508 1507 1506 1505 1504 1503 1502 1501 1500 1500 1499 1499 1500 1501 1501 1502 1503 1503 1504 1503 1502 1502 1501 1501 1501 1502 1502 1501 1500 1499
1527 1525 1523 1522 1521 1520 1518 1517 1514 1513 1511 1511 1510 1509 1508 1508 1506 1505 1503 1501 1499 1498 1497 1497 1496 1495 1496 1497 1499 1500 1501 1501 1501 1502 1501 1500 1500 1500 1500 1500 1499 1499 1498
1529 1528 1526 1525 1524 1522 1520 1518 1515 1513 1512 1512 1512 1512 1511 1510 1508 1505 1503 1500 1497 1494 1492 1492 1491 1491 1492 1493 1495 1496 1497 1498 1499 1500 1500 1500 1500 1500 1500 1499 1499 1498 1497
1532 1530 1528 1527 1526 1524 1522 1520 1518 1516 1515 1515 1515 1515 1513 1511 1508 1505 1502 1498 1494 1490 1488 1487 1486 1487 1488 1489 1491 1492 1494 1496 1497 1498 1499 1499 1499 1499 1499 1499 1498 1497 1497
1534 1532 1531 1530 1528 1526 1524 1522 1520 1519 1518 1518 1517 1515 1513 1511 1508 1504 1500 1495 1491 1487 1485 1483 1483 1483 1484 1485 1487 1489 1491 1493 1495 1497 1498 1498 1499 1499 1499 1499 1498 1497 1496
1535 1534 1532 1530 1529 1527 1525 1523 1522 1521 1520 1519 1518 1516 1513 1511 1508 1504 1499 1494 1489 1485 1483 1482 1482 1482 1483 1484 1485 1487 1489 1492 1495 1496 1497 1498 1499 1499 1499 1498 1498 1497 1496
1536 1535 1533 1532 1530 1528 1526 1524 1523 1522 1521 1520 1519 1517 1515 1512 1509 1505 1501 1496 1491 1487 1485 1483 1483 1483 1484 1485 1486 1488 1490 1493 1495 1496 1498 1499 1499 1499 1499 1498 1497 1497 1496
1535 1534 1533 1532 1531 1529 1527 1525 1524 1523 1522 1522 1520 1518 1516 1513 1510 1507 1503 1499 1495 1491 1488 1487 1486 1486 1486 1487 1488 1490 1492 1494 1496 1497 1498 1499 1499 1499 1498 1498 1497 1497 1496
1534 1533 1533 1532 1531 1529 1527 1525 1524 1523 1523 1522 1521 1518 1516 1514 1511 1508 1505 1503 1499 1496 1494 1492 1491 1491 1491 1491 1492 1493 1495 1496 1497 1498 1499 1500 1499 1499 1498 1498 1497 1496 1495
1533 1533 1533 1532 1531 1530 1528 1527 1525 1524 1523 1523 1522 1519 1517 1515 1513 1511 1508 1506 1503 1501 1500 1498 1497 1496 1496 1496 1497 1497 1498 1499 1499 1500 1500 1500 1500 1499 1498 1497 1496 1495 1493
1533 1532 1532 1532 1532 1531 1530 1529 1528 1526 1525 1524 1523 1521 1519 1517 1515 1513 1511 1509 1507 1506 1504 1503 1501 1501 1500 1500 1500 1500 1500 1501 1501 1500 1500 1500 1499 1498 1497 1496 1495 1494 1493
1533 1532 1532 1532 1533 1532 1532 1531 1530 1528 1527 1526 1525 1522 1520 1519 1517 1516 1514 1512 1510 1509 1507 1505 1504 1503 1503 1502 1502 1502 1501 1501 1501 1500 1500 1499 1498 1498 1497 1496 1495 1493 1492
1533 1533 1532 1532 1532 1532 1532 1532 1531 1530 1529 1528 1526 1524 1522 1521 1520 1518 1516 1514 1512 1510 1508 1507 1505 1504 1503 1502 1502 1501 1501 1500 1500 1500 1499 1499 1498 1497 1496 1495 1494 1492 1489
1533 1533 1532 1532 1532 1532 1532 1532 1531 1531 1530 1529 1527 1526 1524 1523 1521 1519 1517 1515 1513 1511 1509 1507 1506 1505 1503 1502 1501 1501 1500 1499 1498 1498 1498 1498 1497 1496 1495 1494 1492 1490 1488
1533 1532 1532 1532 1532 1532 1532 1532 1532 1531 1530 1529 1528 1527 1525 1524 1522 1520 1518 1516 1514 1512 1511 1509 1507 1506 1505 1503 1502 1501 1500 1499 1498 1497 1497 1497 1496 1496 1495 1493 1492 1490 1489
1532 1532 1531 1531 1531 1532 1532 1532 1531 1531 1530 1529 1528 1527 1526 1525 1523 1521 1520 1518 1516 1514 1512 1511 1509 1508 1506 1505 1503 1502 1500 1499 1498 1497 1497 1497 1496 1495 1494 1493 1492 1491 1490
1530 1530 1530 1530 1530 1530 1530 1531 1531 1530 1529 1528 1527 1526 1526 1525 1523 1522 1520 1519 1517 1515 1514 1512 1511 1510 1508 1507 1505 1503 1501 1499 1498 1497 1497 1497 1497 1496 1496 1495 1494 1493 1491